Date String (YYYY-MM-DD hh:mm:ss) UTC,Instrument flags,Ambient pressure (hPa),Sample flow (lpm),Bypass flow (lpm),Sample temperature (°C),Ambient temperature (°C),ASC tube jacket temperature (°C),LED temperature (°C),Box temperature (°C),Sample RH (%),Span deviation,Mass concentration (μg/m³),Mass concentration (μg/m³),Mass concentration (μg/m³)
DateTimeUTC,F1_M11,P_M11,Q1_M11,Q2_M11,T1_M11,T2_M11,T3_M11,T4_M11,T5_M11,U1_M11,ZSPAN_M11,X0_M11,X2_M11,X1_M11
2023-02-15 03:00:00,,0811.2,5.01,0.00,22.6,21.0,00.0,31.4,24.4,07.5,0000.0,0002.86,0001.43,0000.90
2023-02-15 03:01:00,,0811.1,5.01,0.00,22.6,20.9,00.0,31.4,24.3,07.4,0000.0,0003.04,0001.48,0000.90
2023-02-15 03:02:00,,0811.2,5.00,0.00,22.6,20.9,00.0,31.4,24.3,07.3,0000.0,0003.16,0001.50,0000.88
2023-02-15 03:03:00,,0811.1,5.01,0.00,22.5,20.9,00.0,31.4,24.3,07.1,0000.0,0003.81,0001.54,0000.87
2023-02-15 03:04:00,,0811.2,4.98,0.00,22.5,20.9,00.0,31.4,24.3,07.2,0000.0,0004.17,0001.57,0000.87
2023-02-15 03:05:00,,0811.2,5.00,0.00,22.5,20.8,00.0,31.4,24.3,07.2,0000.0,0004.42,0001.65,0000.86
2023-02-15 03:06:00,,0811.1,5.00,0.00,22.5,20.7,00.0,31.4,24.3,07.3,0000.0,0005.53,0001.76,0000.87
2023-02-15 03:07:00,,0811.2,4.99,0.00,22.5,20.7,00.0,31.4,24.2,07.3,0000.0,0006.32,0001.81,0000.86
2023-02-15 03:08:00,,0811.2,5.01,0.00,22.4,20.7,00.0,31.3,24.2,07.4,0000.0,0007.36,0001.76,0000.86
2023-02-15 03:09:00,,0811.3,5.01,0.00,22.4,20.6,00.0,31.3,24.2,07.3,0000.0,0007.44,0001.73,0000.85
2023-02-15 03:10:00,,0811.3,5.00,0.00,22.4,20.6,00.0,31.3,24.2,07.3,0000.0,0007.56,0001.78,0000.85
2023-02-15 03:11:00,,0811.3,5.01,0.00,22.4,20.6,00.0,31.3,24.2,07.2,0000.0,0007.56,0001.78,0000.85
2023-02-15 03:12:00,,0811.4,5.00,0.00,22.4,20.5,00.0,31.3,24.1,07.2,0000.0,0007.56,0001.78,0000.84
2023-02-15 03:13:00,,0811.4,5.00,0.00,22.3,20.4,00.0,31.3,24.1,07.3,0000.0,0007.72,0001.83,0000.85
2023-02-15 03:14:00,,0811.5,5.01,0.00,22.3,20.6,00.0,31.3,24.1,07.3,0000.0,0007.50,0001.78,0000.84
2023-02-15 03:15:00,,0811.6,4.97,0.00,22.4,21.7,00.0,31.2,24.3,07.2,0000.0,0007.40,0001.74,0000.83
2023-02-15 03:16:00,,0811.6,4.97,0.00,22.5,22.8,00.0,31.2,24.6,07.1,0000.0,0007.63,0001.70,0000.83
2023-02-15 03:17:00,,0811.6,5.02,0.00,22.6,22.8,00.0,31.3,24.7,07.2,0000.0,0006.87,0001.63,0000.83
2023-02-15 03:18:00,,0811.6,5.01,0.00,22.6,22.4,00.0,31.3,24.6,06.9,0000.0,0006.47,0001.59,0000.84
2023-02-15 03:19:00,,0811.5,4.97,0.00,22.6,22.0,00.0,31.3,24.5,06.9,0000.0,0005.77,0001.57,0000.85
2023-02-15 03:20:00,,0811.6,4.99,0.00,22.6,21.7,00.0,31.4,24.5,07.1,0000.0,0005.67,0001.57,0000.84
2023-02-15 03:21:00,,0811.7,5.01,0.00,22.6,21.5,00.0,31.4,24.4,06.8,0000.0,0005.36,0001.48,0000.84
2023-02-15 03:22:00,,0811.7,5.01,0.00,22.6,21.3,00.0,31.4,24.4,06.8,0000.0,0005.24,0001.46,0000.84
2023-02-15 03:23:00,,0811.7,4.98,0.00,22.6,21.2,00.0,31.4,24.4,06.7,0000.0,0005.06,0001.41,0000.84
2023-02-15 03:24:00,,0811.7,5.00,0.00,22.6,21.1,00.0,31.4,24.3,06.7,0000.0,0005.08,0001.36,0000.84
2023-02-15 03:25:00,,0811.7,5.00,0.00,22.6,21.0,00.0,31.4,24.4,06.7,0000.0,0004.82,0001.35,0000.85
2023-02-15 03:26:00,,0811.7,5.00,0.00,22.6,21.0,00.0,31.4,24.4,06.8,0000.0,0004.61,0001.33,0000.85
2023-02-15 03:27:00,,0811.8,4.99,0.00,22.5,21.0,00.0,31.4,24.3,07.0,0000.0,0003.85,0001.27,0000.85
2023-02-15 03:28:00,,0811.9,5.00,0.00,22.5,20.9,00.0,31.4,24.3,07.0,0000.0,0003.77,0001.22,0000.84
2023-02-15 03:29:00,,0811.8,5.01,0.00,22.5,20.9,00.0,31.4,24.3,07.0,0000.0,0003.50,0001.21,0000.84
2023-02-15 03:30:00,,0811.8,5.00,0.00,22.5,20.9,00.0,31.4,24.3,07.0,0000.0,0003.07,0001.24,0000.84
2023-02-15 03:31:00,,0811.9,4.97,0.00,22.5,20.9,00.0,31.4,24.3,07.0,0000.0,0003.16,0001.26,0000.85
2023-02-15 03:32:00,,0812.0,5.01,0.00,22.5,20.9,00.0,31.4,24.3,07.0,0000.0,0003.72,0001.30,0000.86
2023-02-15 03:33:00,,0812.0,5.01,0.00,22.5,20.9,00.0,31.4,24.3,07.0,0000.0,0004.24,0001.32,0000.87
2023-02-15 03:34:00,,0812.1,5.01,0.00,22.5,20.9,00.0,31.3,24.3,07.0,0000.0,0004.24,0001.32,0000.86
2023-02-15 03:35:00,,0812.1,5.01,0.00,22.5,20.9,00.0,31.3,24.3,07.1,0000.0,0004.42,0001.33,0000.86
2023-02-15 03:36:00,,0812.1,4.97,0.00,22.5,20.9,00.0,31.3,24.3,07.1,0000.0,0004.41,0001.34,0000.85
2023-02-15 03:37:00,,0812.2,5.01,0.00,22.5,20.9,00.0,31.3,24.3,07.1,0000.0,0004.41,0001.32,0000.85
2023-02-15 03:38:00,,0812.1,4.99,0.00,22.4,20.9,00.0,31.3,24.3,06.9,0000.0,0004.55,0001.32,0000.84
2023-02-15 03:39:00,,0812.2,5.00,0.00,22.4,20.9,00.0,31.3,24.2,06.9,0000.0,0004.52,0001.32,0000.85
2023-02-15 03:40:00,,0812.2,4.99,0.00,22.4,20.8,00.0,31.3,24.2,06.9,0000.0,0004.71,0001.33,0000.85
2023-02-15 03:41:00,,0812.3,4.99,0.00,22.4,20.8,00.0,31.3,24.2,06.8,0000.0,0004.58,0001.33,0000.85
2023-02-15 03:42:00,,0812.3,5.00,0.00,22.4,20.7,00.0,31.3,24.1,06.5,0000.0,0004.61,0001.35,0000.85
2023-02-15 03:43:00,,0812.4,4.99,0.00,22.4,20.7,00.0,31.3,24.1,06.5,0000.0,0005.17,0001.32,0000.85
2023-02-15 03:44:00,,0812.4,4.98,0.00,22.4,21.4,00.0,31.2,24.3,06.5,0000.0,0004.81,0001.33,0000.84
2023-02-15 03:45:00,,0812.5,5.03,0.00,22.5,22.5,00.0,31.2,24.6,06.6,0000.0,0004.72,0001.30,0000.85
2023-02-15 03:46:00,,0812.5,4.99,0.00,22.6,23.1,00.0,31.3,24.7,06.6,0000.0,0004.40,0001.29,0000.85
2023-02-15 03:47:00,,0812.4,4.97,0.00,22.7,22.7,00.0,31.3,24.7,06.8,0000.0,0004.78,0001.33,0000.86
2023-02-15 03:48:00,,0812.4,5.00,0.00,22.7,22.3,00.0,31.4,24.6,06.6,0000.0,0005.50,0001.36,0000.87
2023-02-15 03:49:00,,0812.4,5.01,0.00,22.7,22.0,00.0,31.4,24.6,06.5,0000.0,0005.39,0001.38,0000.88
2023-02-15 03:50:00,,0812.4,5.01,0.00,22.7,21.7,00.0,31.4,24.5,06.6,0000.0,0005.77,0001.39,0000.87
2023-02-15 03:51:00,,0812.4,4.99,0.00,22.7,21.5,00.0,31.4,24.5,06.7,0000.0,0005.97,0001.39,0000.88
2023-02-15 03:52:00,,0812.5,5.01,0.00,22.7,21.4,00.0,31.4,24.5,06.7,0000.0,0007.42,0001.40,0000.89
2023-02-15 03:53:00,,0812.5,4.97,0.00,22.6,21.2,00.0,31.4,24.4,06.9,0000.0,0007.42,0001.40,0000.90
2023-02-15 03:54:00,,0812.5,4.98,0.00,22.6,21.1,00.0,31.4,24.4,06.8,0000.0,0007.48,0001.41,0000.92
2023-02-15 03:55:00,,0812.5,4.99,0.00,22.6,21.0,00.0,31.4,24.4,06.9,0000.0,0007.44,0001.42,0000.94
2023-02-15 03:56:00,,0812.5,5.01,0.00,22.6,20.9,00.0,31.4,24.3,06.8,0000.0,0007.72,0001.47,0000.95
2023-02-15 03:57:00,,0812.6,4.99,0.00,22.6,20.8,00.0,31.4,24.3,07.1,0000.0,0007.71,0001.50,0000.97
2023-02-15 03:58:00,,0812.6,5.00,0.00,22.5,20.8,00.0,31.4,24.3,07.0,0000.0,0007.41,0001.45,0000.97
2023-02-15 03:59:00,,0812.7,5.01,0.00,22.5,20.8,00.0,31.4,24.3,07.2,0000.0,0006.72,0001.45,0000.98
